Flag for Poland Weather past 2 weeks in Poznan, Poland

Now
79 °F

Passing clouds.


Feels Like: 80 °F
Forecast: 64 / 80 °F
Wind: 6 mph from Southeast

Location: Poznan Airport

Current Time: Aug 4, 2015 at 10:10:07 AM

Latest Report: Aug 4, 2015 at 9:30 AM


Visibility: N/A

Pressure: 30.04 "Hg

Humidity: 48%

Dew point: 57 °F

Location of PoznanLocation

Historic Weather in Poznan — Graph

°F

Poznan temperature yesterday

Maximum temperature yesterday: 88 °F (at 3:00 PM)
Minimum temperature yesterday: 59 °F (at 3:30 AM)
Average temperature yesterday: 76 °F

Past Weeks' High & Low Weather Summary

 TemperatureHumidityPressure
High88 °F (Aug 3, 3:00 PM)100% (Jul 21, 7:30 PM)30.12 "Hg (Jul 21, 7:30 PM)
Low45 °F (Aug 1, 4:30 AM)24% (Aug 2, 3:00 PM)29.59 "Hg (Jul 25, 4:30 PM)
Average67 °F60%29.89 "Hg
* Reported Jul 20 9:00 AM — Aug 4 9:00 AM, Poznan, Weather by CustomWeather, © 2015

Note: Actual official high and low records may vary slightly from our data, if they occured in-between our weather recording intervals... More about our weather records

Advertising

Poznan weather history for previous 24 hours

 ConditionsComfort  
Time TempWeatherWind HumidityBarometerVisibility
9:00 AM
Tue, Aug 4
77 °FSunny.6 mph47%30.04 "Hg10 mi
8:30 AM75 °FSunny.7 mph47%30.04 "Hg10 mi
8:00 AM73 °FSunny.7 mph47%30.04 "Hg10 mi
7:30 AM72 °FSunny.6 mph50%30.04 "Hg10 mi
7:00 AM68 °FSunny.7 mph56%30.04 "Hg10 mi
6:30 AM66 °FSunny.8 mph60%30.04 "Hg10 mi
6:00 AM64 °FClear.8 mph64%30.04 "Hg10 mi
5:30 AM66 °FClear.7 mph56%30.04 "Hg10 mi
5:00 AM64 °FClear.7 mph46%30.04 "Hg10 mi
4:30 AM64 °FClear.7 mph64%30.04 "Hg10 mi
4:00 AM64 °FClear.7 mph64%30.04 "Hg10 mi
3:30 AM66 °FClear.7 mph60%30.07 "Hg10 mi
3:00 AM66 °FClear.7 mph60%30.07 "Hg10 mi
2:30 AM68 °FClear.7 mph56%30.07 "Hg10 mi
2:00 AM68 °FClear.6 mph56%30.07 "Hg10 mi
1:30 AM70 °FClear.6 mph53%30.07 "Hg10 mi
1:00 AM70 °FClear.7 mph57%30.07 "Hg10 mi
12:30 AM72 °FClear.7 mph50%30.07 "Hg10 mi
12:00 AM72 °FPassing clouds.5 mph50%30.07 "HgN/A
11:30 PM
Mon, Aug 3
72 °FClear.3 mph53%30.07 "Hg10 mi
11:00 PM72 °FClear.3 mph57%30.07 "Hg10 mi
10:30 PM73 °FClear.3 mph57%30.07 "Hg10 mi
10:00 PM75 °FClear.3 mph47%30.07 "Hg10 mi
9:30 PM77 °FSunny.3 mph42%30.07 "Hg10 mi
9:00 PM77 °FSunny.5 mph47%30.07 "Hg10 mi
8:30 PM82 °FSunny.5 mph35%30.07 "Hg10 mi
8:00 PM82 °FSunny.5 mph30%30.07 "Hg10 mi
7:30 PM84 °FSunny.6 mph31%30.07 "Hg10 mi
7:00 PM86 °FSunny.7 mph27%30.07 "Hg10 mi
6:30 PM86 °FPassing clouds.7 mph27%30.07 "HgN/A
6:00 PM88 °FPassing clouds.8 mph24%30.07 "HgN/A
5:30 PM88 °FPassing clouds.5 mph24%30.07 "HgN/A
5:00 PM88 °FPassing clouds.7 mph24%30.07 "HgN/A
4:30 PM88 °FPassing clouds.6 mph24%30.09 "HgN/A
4:00 PM88 °FPassing clouds.8 mph24%30.09 "HgN/A
3:30 PM88 °FSunny.3 mph24%30.09 "Hg10 mi
3:00 PM88 °FPassing clouds.5 mph24%30.09 "HgN/A
2:30 PM86 °FPassing clouds.6 mph29%30.09 "HgN/A
2:00 PM86 °FPassing clouds.6 mph27%30.09 "HgN/A
1:30 PM86 °FPassing clouds.5 mph27%30.09 "HgN/A
1:00 PM86 °FSunny.5 mph29%30.12 "Hg10 mi
12:30 PM84 °FPassing clouds.6 mph29%30.12 "HgN/A
12:00 PM82 °FPassing clouds.6 mph30%30.12 "HgN/A
11:30 AM82 °FSunny.5 mph32%30.12 "Hg10 mi
11:00 AM81 °FSunny.5 mph37%30.12 "Hg10 mi
10:30 AM79 °FPassing clouds.5 mph45%30.12 "HgN/A
10:00 AM77 °FPassing clouds.5 mph47%30.12 "HgN/A
Weather by CustomWeather, © 2015

See weather overviewHow to use our weather pages